CHINASAT 9C

Last updated on Sun Jun 21 2026 00:03:09 GMT+0000 (Coordinated Universal Time)

1 64470U 25132A 26171.33878891 -.00000252 00000+0 00000+0 0 9996 2 64470 0.0131 73.6837 0003074 13.1824 35.8296 1.00273457 4180
UTC large
Height (km)
Speed (km/s)
/
Latitude / Longitude
Inclination (degrees)
Orbital Period (minutes)
Azimuth
Elevation
Range (km)
Doppler Factor

Next 0 passes for location: London (51.5072 / 0.1276)

No passes found over London.
CHINASAT 9C